[[{"header":{"parameterUnit":"m.s-1","parameterCategory":1,"la1":30.2991,"la2":30.254,"lo1":-89.0895,"lo2":-89.0444,"dy":0.0017,"dx":0.0017,"nx":28,"ny":28,"refTime":"2023-08-30T21:00:00:Z","depth":0,"parameterNumber":2,"parameterNumberName":"U-component_of_WINDS"},"data":[0,0,0,0,0,0,0,0,0,0,0,0,0,0,0,0,0,0,0,0,0,0,0,0,0,0,0,0,0,0,0,0,0,0,0,0,0,0,0,0,0,0,0,0,0,0,0,0,0,0,0,0,0,0,0,0,0,0,-1.2334,-1.2335,0,-1.2371,-1.2372,-1.2372,-1.2278,-1.2275,-1.2273,-1.227,-1.2311,-1.2315,-1.2319,0,0,0,0,0,0,0,0,0,0,0,0,0,-1.2186,-1.2189,-1.2334,-1.2335,-1.2335,-1.2371,-1.2372,-1.2372,-1.2279,-1.2275,-1.2272,-1.2268,-1.231,-1.2314,-1.2319,0,0,0,0,0,0,0,0,0,0,0,0,0,-1.2239,-1.219,-1.2334,-1.2293,-1.229,-1.2371,-1.2372,-1.2372,-1.228,-1.2275,-1.2271,-1.2267,-1.2308,-1.2314,-1.232,-1.2444,0,0,-1.2337,-1.234,0,0,0,0,0,0,0,0,-1.2236,-1.2245,-1.2299,-1.2296,-1.2292,-1.2316,-1.2334,-1.2396,-1.2281,-1.2284,-1.227,-1.2265,-1.2316,-1.2321,-1.2338,-1.2446,-1.2448,-1.2338,-1.2341,-1.2344,-1.2345,0,0,0,0,0,0,0,-1.2233,-1.2243,-1.2349,-1.23,-1.2296,-1.2273,-1.2276,-1.2346,-1.2325,-1.2283,-1.2276,-1.2282,-1.2314,-1.2333,-1.2338,-1.2448,-1.2338,-1.2343,-1.2346,-1.2349,-1.266,-1.2664,0,0,0,0,0,0,-1.2234,-1.224,-1.2348,-1.235,-1.2253,-1.228,-1.2283,-1.2313,-1.2323,-1.2321,-1.2286,-1.2277,-1.2325,-1.2332,-1.2339,-1.2487,-1.2344,-1.2349,-1.2352,-1.2655,-1.2661,-1.2666,0,0,0,0,0,0,-1.2231,-1.2244,-1.2346,-1.2293,-1.2305,-1.2287,-1.2321,-1.2316,-1.2334,-1.2325,-1.2321,-1.2309,-1.2322,-1.2331,-1.2418,-1.2487,-1.2352,-1.2357,-1.2649,-1.2657,-1.2663,-1.2782,0,0,0,0,0,0,-1.2227,-1.2244,-1.2291,-1.2295,-1.2308,-1.2425,-1.2325,-1.232,-1.2344,-1.2334,-1.2346,-1.2344,-1.2319,-1.241,-1.2424,-1.2492,-1.2361,-1.2643,-1.2653,-1.2661,-1.2772,-1.2792,-1.281,0,0,0,0,0,-1.2222,-1.2323,-1.2294,-1.2307,-1.2366,-1.2429,-1.2436,-1.2405,-1.235,-1.2397,-1.2391,-1.2343,-1.2476,-1.242,-1.2435,-1.2506,-1.2639,-1.265,-1.2661,-1.2763,-1.2788,-1.2809,0,0,0,0,0,0,-1.2329,-1.2323,-1.229,-1.2395,-1.2413,-1.2413,-1.2472,-1.2432,-1.2467,-1.2456,-1.2416,-1.2419,-1.2515,-1.2518,-1.2456,-1.2626,-1.2548,-1.2563,-1.2621,-1.2645,-1.2663,-1.2662,-1.2366,0,0,0,0,0,-1.2365,-1.2415,-1.2407,-1.2501,-1.2512,-1.249,-1.2517,-1.249,-1.2508,-1.2515,-1.2515,-1.2535,-1.2581,-1.2612,-1.2654,-1.277,-1.2773,-1.2826,-1.2845,-1.2861,-1.2875,-1.2937,-1.2962,-1.2702,-1.2701,-1.2701,0,0,-1.2439,-1.2442,-1.2477,-1.2523,-1.2533,-1.2588,-1.2497,-1.2559,-1.26,-1.2525,-1.2608,-1.2608,-1.2627,-1.273,-1.2775,-1.2736,-1.2946,-1.2874,-1.2887,-1.2893,-1.2951,-1.2976,-1.2998,-1.2709,-1.2708,-1.2706,0,0,-1.2604,-1.261,-1.269,-1.2701,-1.2718,-1.2703,-1.2722,-1.2727,-1.2724,-1.2806,-1.2751,-1.2798,-1.2878,-1.2895,-1.2913,-1.3081,-1.3039,-1.3096,-1.3196,-1.3258,-1.3278,-1.3296,-1.3359,-1.3381,-1.3109,-1.3109,-1.311,0,-1.2696,-1.2775,-1.2736,-1.2801,-1.2823,-1.2756,-1.2836,-1.285,-1.288,-1.2898,-1.2852,-1.2951,-1.2959,-1.3065,-1.3105,-1.3122,-1.3144,-1.3096,-1.3278,-1.3296,-1.3312,-1.3371,-1.3395,-1.3116,-1.3116,-1.3115,-1.3114,0,-1.2887,-1.2943,-1.3005,-1.3034,-1.3063,-1.3136,-1.3108,-1.3142,-1.3113,-1.3102,-1.3187,-1.3193,-1.3235,-1.3257,-1.323,-1.336,-1.3335,-1.3285,-1.3206,-1.3345,-1.34,-1.3422,-1.3126,-1.3124,-1.3122,-1.312,0,0,-1.3124,-1.3129,-1.3153,-1.3166,-1.3178,-1.3221,-1.329,-1.333,-1.336,-1.3382,-1.3441,-1.3508,-1.3462,-1.3483,-1.3456,-1.3509,-1.3645,-1.3452,-1.3452,-1.349,-1.379,-1.383,-1.3857,-1.3615,-1.3619,-1.3622,-1.3789,0,-1.3289,-1.3407,-1.3373,-1.3493,-1.3544,-1.3479,-1.354,-1.3554,-1.3546,-1.3589,-1.3579,-1.3629,-1.3562,-1.3575,-1.3624,-1.3618,-1.3705,-1.3605,-1.3671,-1.3674,-1.3672,-1.3885,-1.3928,-1.4086,-1.381,-1.3814,-1.3816,0,-1.3497,-1.3527,-1.3651,-1.3654,-1.3675,-1.373,-1.3763,-1.3804,-1.3819,-1.3809,-1.3832,-1.3794,-1.3862,-1.378,-1.3875,-1.3808,-1.3832,-1.3833,-1.3838,-1.3846,-1.3756,-1.3902,-1.4135,-1.416,-1.3849,-1.3846,-1.3844,0,-1.3661,-1.3731,-1.3815,-1.3827,-1.3832,-1.3873,-1.3877,-1.3887,-1.3913,-1.3942,-1.3959,-1.3996,-1.4017,-1.4047,-1.402,-1.3962,-1.412,-1.4035,-1.4116,-1.4117,-1.4155,-1.4154,-1.4399,-1.4165,-1.4165,-1.4165,-1.4164,0,-1.3851,-1.393,-1.3888,-1.3941,-1.4028,-1.3987,-1.4074,-1.4071,-1.408,-1.4131,-1.4076,-1.4125,-1.4084,-1.413,-1.4109,-1.4192,-1.4201,-1.4196,-1.419,-1.4203,-1.4204,-1.4222,-1.4211,-1.4171,-1.4169,-1.4168,-1.4167,0,-1.405,-1.4025,-1.4113,-1.4109,-1.411,-1.4175,-1.4172,-1.4221,-1.4206,-1.4271,-1.4284,-1.4263,-1.4314,-1.4288,-1.4341,-1.4326,-1.4435,-1.4412,-1.443,-1.4426,-1.4508,-1.4502,-1.4776,-1.4811,-1.4552,-1.4554,-1.4556,0,-1.4175,-1.4234,-1.4237,-1.4266,-1.4274,-1.4322,-1.4347,-1.4309,-1.4338,-1.4358,-1.4405,-1.445,-1.4485,-1.4568,-1.4559,-1.4598,-1.4579,-1.4671,-1.4585,-1.4596,-1.4584,-1.4582,-1.4588,-1.4691,-1.4694,-1.4696,-1.4698,0,-1.4399,-1.4383,-1.4422,-1.4457,-1.4489,-1.4514,-1.4535,-1.4563,-1.4524,-1.456,-1.461,-1.4637,-1.4689,-1.4736,-1.477,-1.4775,-1.4732,-1.4725,-1.4746,-1.4762,-1.4771,-1.477,-1.4481,-1.472,-1.4718,-1.4716,-1.4715,-1.4714,-1.4567,-1.4617,-1.4627,-1.4672,-1.4683,-1.4703,-1.4749,-1.4739,-1.478,-1.482,-1.4794,-1.4854,-1.4866,-1.4907,-1.4917,-1.4964,-1.4927,-1.4957,-1.4966,-1.4975,-1.4987,-1.476,-1.497,-1.4969,-1.4968,-1.4968,-1.4967,0,-1.4791,-1.4793,-1.4835,-1.4865,-1.4901,-1.4853,-1.4873,-1.4907,-1.496,-1.4974,-1.5009,-1.5067,-1.5111,-1.5103,-1.5143,-1.5182,-1.5163,-1.5194,-1.5193,-1.5195,-1.5016,-1.4995,-1.5209,-1.5209,-1.5209,-1.5209,-1.5209,-1.5209,-1.4912,-1.4995,-1.498,-1.5067,-1.5069,-1.5126,-1.5142,-1.5161,-1.5172,-1.5239,-1.5275,-1.5269,-1.5274,-1.5314,-1.5353,-1.5349,-1.5368,-1.5408,-1.5397,-1.5231,-1.5208,-1.5185,-1.5165,-1.5411,-1.5411,-1.5572,-1.5574,-1.5575]},{"header":{"parameterUnit":"m.s-1","parameterCategory":1,"la1":30.2991,"la2":30.254,"lo1":-89.0895,"lo2":-89.0444,"dy":0.0017,"dx":0.0017,"nx":28,"ny":28,"refTime":"2023-08-30T21:00:00:Z","depth":0,"parameterNumber":3,"parameterNumberName":"V-component_of_WINDS"},"data":[0,0,0,0,0,0,0,0,0,0,0,0,0,0,0,0,0,0,0,0,0,0,0,0,0,0,0,0,0,0,0,0,0,0,0,0,0,0,0,0,0,0,0,0,0,0,0,0,0,0,0,0,0,0,0,0,0,0,-4.8512,-4.8513,0,-4.8593,-4.8594,-4.8595,-4.852,-4.8517,-4.8514,-4.8511,-4.8591,-4.8595,-4.86,0,0,0,0,0,0,0,0,0,0,0,0,0,-4.8288,-4.8292,-4.8512,-4.8513,-4.8514,-4.8593,-4.8594,-4.8595,-4.852,-4.8516,-4.8513,-4.8509,-4.8589,-4.8595,-4.8601,0,0,0,0,0,0,0,0,0,0,0,0,0,-4.8379,-4.8294,-4.8512,-4.8486,-4.8485,-4.8593,-4.8594,-4.8596,-4.8521,-4.8516,-4.8512,-4.8508,-4.8587,-4.8594,-4.8602,-4.8738,0,0,-4.8624,-4.8628,0,0,0,0,0,0,0,0,-4.8374,-4.8387,-4.8489,-4.8488,-4.8487,-4.8542,-4.8544,-4.8644,-4.8522,-4.8507,-4.8511,-4.8505,-4.8578,-4.8586,-4.8611,-4.8742,-4.8746,-4.8625,-4.8629,-4.8633,-4.8635,0,0,0,0,0,0,0,-4.8367,-4.8383,-4.8544,-4.8491,-4.8489,-4.8469,-4.8477,-4.8563,-4.8567,-4.8508,-4.8503,-4.8514,-4.8576,-4.8604,-4.8612,-4.8747,-4.8625,-4.8631,-4.8636,-4.8639,-4.8992,-4.8997,0,0,0,0,0,0,-4.8364,-4.8378,-4.8542,-4.8547,-4.8418,-4.8477,-4.8486,-4.8529,-4.8566,-4.8567,-4.8517,-4.851,-4.8593,-4.8604,-4.8615,-4.8776,-4.8633,-4.864,-4.8644,-4.8988,-4.8994,-4.8999,0,0,0,0,0,0,-4.836,-4.838,-4.8538,-4.8461,-4.848,-4.8486,-4.8534,-4.8533,-4.856,-4.8573,-4.8573,-4.8545,-4.859,-4.8604,-4.8708,-4.8778,-4.8643,-4.865,-4.8982,-4.8989,-4.8996,-4.9102,0,0,0,0,0,0,-4.8354,-4.8379,-4.8432,-4.8463,-4.8484,-4.8632,-4.8539,-4.8538,-4.8574,-4.8564,-4.8599,-4.86,-4.8588,-4.8697,-4.8716,-4.8786,-4.8655,-4.8975,-4.8985,-4.8994,-4.9092,-4.9112,-4.9129,0,0,0,0,0,-4.8346,-4.8458,-4.8435,-4.8455,-4.8551,-4.8636,-4.8648,-4.8633,-4.858,-4.8632,-4.864,-4.8599,-4.8768,-4.8709,-4.8728,-4.8802,-4.8971,-4.8982,-4.8993,-4.9084,-4.9108,-4.9128,0,0,0,0,0,0,-4.8434,-4.8461,-4.8436,-4.8562,-4.8597,-4.8623,-4.869,-4.8659,-4.871,-4.8699,-4.8676,-4.8684,-4.8794,-4.8808,-4.8742,-4.8935,-4.886,-4.8876,-4.8922,-4.8945,-4.8964,-4.8958,-4.8662,0,0,0,0,0,-4.8468,-4.8536,-4.8556,-4.8665,-4.8684,-4.8684,-4.872,-4.8705,-4.8741,-4.8755,-4.8771,-4.8806,-4.8866,-4.8906,-4.8963,-4.9093,-4.9099,-4.9154,-4.9172,-4.9187,-4.9201,-4.9269,-4.9293,-4.9035,-4.9035,-4.9035,0,0,-4.8539,-4.8562,-4.8607,-4.8683,-4.8709,-4.8778,-4.8697,-4.8775,-4.8825,-4.8766,-4.8866,-4.8878,-4.8915,-4.9033,-4.9085,-4.9048,-4.9273,-4.9201,-4.9213,-4.9218,-4.9283,-4.9307,-4.9329,-4.9043,-4.9042,-4.904,0,0,-4.8704,-4.8729,-4.8822,-4.8849,-4.889,-4.8889,-4.8911,-4.8942,-4.8948,-4.9047,-4.9004,-4.9063,-4.9169,-4.9197,-4.9225,-4.9399,-4.9363,-4.9418,-4.9514,-4.9581,-4.9601,-4.9619,-4.968,-4.9702,-4.9431,-4.9432,-4.9432,0,-4.8787,-4.8891,-4.8873,-4.8954,-4.8988,-4.8938,-4.9031,-4.9058,-4.9115,-4.9139,-4.9096,-4.9227,-4.9248,-4.9371,-4.9413,-4.9438,-4.9461,-4.9414,-4.96,-4.9618,-4.9634,-4.9692,-4.9715,-4.9438,-4.9437,-4.9437,-4.9436,0,-4.8991,-4.9064,-4.9134,-4.919,-4.9232,-4.9318,-4.9312,-4.9356,-4.9337,-4.934,-4.9441,-4.9465,-4.9525,-4.9553,-4.9535,-4.9673,-4.9648,-4.9604,-4.9527,-4.9665,-4.9719,-4.9742,-4.9447,-4.9445,-4.9443,-4.9441,0,0,-4.9214,-4.9259,-4.9285,-4.9309,-4.9349,-4.9405,-4.9488,-4.9547,-4.9585,-4.9625,-4.9694,-4.9783,-4.9742,-4.9774,-4.9758,-4.9817,-4.9952,-4.9765,-4.9765,-4.9798,-5.0104,-5.0137,-5.0163,-4.9928,-4.9932,-4.9936,-5.01,0,-4.938,-4.9526,-4.9511,-4.9649,-4.9716,-4.9669,-4.9741,-4.9773,-4.9777,-4.9833,-4.9837,-4.9901,-4.9842,-4.9861,-4.9917,-4.9924,-5.0013,-4.9912,-4.999,-4.9993,-4.9982,-5.0192,-5.0227,-5.0382,-5.0122,-5.0125,-5.0128,0,-4.9593,-4.9641,-4.9787,-4.9815,-4.9843,-4.9908,-4.9961,-5.0015,-5.0049,-5.0048,-5.0083,-5.0057,-5.0139,-5.0061,-5.0173,-5.0104,-5.0135,-5.0143,-5.0149,-5.0155,-5.0069,-5.0203,-5.0431,-5.0454,-5.0161,-5.0158,-5.0156,0,-4.974,-4.9842,-4.9941,-4.9964,-5.0,-5.0047,-5.0064,-5.0094,-5.013,-5.0175,-5.0198,-5.0252,-5.0282,-5.0324,-5.0312,-5.0257,-5.0426,-5.0347,-5.0426,-5.0426,-5.0464,-5.0461,-5.0699,-5.0485,-5.0484,-5.0484,-5.0483,0,-4.9927,-5.0017,-5.0008,-5.0069,-5.0168,-5.015,-5.0248,-5.0259,-5.0286,-5.0347,-5.0309,-5.0367,-5.0348,-5.0405,-5.0396,-5.0489,-5.0503,-5.0503,-5.05,-5.0507,-5.0506,-5.0526,-5.0515,-5.049,-5.0489,-5.0487,-5.0486,0,-5.0109,-5.0106,-5.0211,-5.0237,-5.0246,-5.0318,-5.0339,-5.0395,-5.0397,-5.0475,-5.0492,-5.0493,-5.0558,-5.055,-5.0622,-5.0616,-5.0731,-5.0715,-5.0721,-5.0717,-5.0795,-5.0788,-5.1054,-5.1087,-5.0852,-5.0854,-5.0856,0,-5.0228,-5.0296,-5.0329,-5.0368,-5.0389,-5.0452,-5.0488,-5.0472,-5.0512,-5.0555,-5.0606,-5.0668,-5.0716,-5.0821,-5.0827,-5.0882,-5.0866,-5.0955,-5.0874,-5.0878,-5.0866,-5.0862,-5.0868,-5.0971,-5.0974,-5.0976,-5.0978,0,-5.0439,-5.0434,-5.0489,-5.0544,-5.0589,-5.0631,-5.0669,-5.0703,-5.069,-5.0736,-5.0802,-5.0839,-5.0913,-5.0973,-5.1024,-5.104,-5.1007,-5.1004,-5.1024,-5.1032,-5.1032,-5.1032,-5.0764,-5.0998,-5.0996,-5.0994,-5.0993,-5.0992,-5.0593,-5.0651,-5.0683,-5.0745,-5.0772,-5.0808,-5.0863,-5.0871,-5.0926,-5.0985,-5.0971,-5.1045,-5.1076,-5.1141,-5.1162,-5.1218,-5.1186,-5.1216,-5.1224,-5.1231,-5.124,-5.1023,-5.1228,-5.1227,-5.1227,-5.1226,-5.1226,0,-5.0801,-5.0819,-5.0877,-5.0931,-5.098,-5.0945,-5.0985,-5.1028,-5.1094,-5.1125,-5.1173,-5.1248,-5.1307,-5.1318,-5.1373,-5.1416,-5.1402,-5.1431,-5.1427,-5.1431,-5.1267,-5.1243,-5.1441,-5.1441,-5.1441,-5.1441,-5.1441,-5.1441,-5.0916,-5.1012,-5.1011,-5.1119,-5.1136,-5.1209,-5.1235,-5.1267,-5.1292,-5.1378,-5.1427,-5.1434,-5.1456,-5.1513,-5.1564,-5.1566,-5.1587,-5.1622,-5.1618,-5.1464,-5.1443,-5.1422,-5.14,-5.1627,-5.1628,-5.1777,-5.1778,-5.1779]}]]